SCP
0 0 -0 -0 -0 -0 -0 0 0 0 -0 0 0 0 0 0 0 0 0 0 0 0 0 0 0 0 0 0 0 0 0 0 0 0 0 0 0 0 0 0 0 0 0 -0
0 0 -0 -0 -0 -0 0 -0 0 0 0 0 0 0 0 0 0 0 0 0 0 0 0 0 0 0 0 0 0 0 0 0 0 0 0 0 0 0 0 0 0 0 0 0
0 0 -0 -0 -0 -0 -0 0 0 0 0 0 0 0 0 0 0 0 0 0 0 0 0 0 0 0 0 0 0 0 0 0 0 0 0 0 0 0 0 0 0 0 0 -0
0 0 0 -0 -0 -0 0 0 0 0 0 0 0 0 0 0 0 0 0 0 0 0 0 0 0 0 0 0 0 0 0 0 0 0 0 0 0 0 0 0 0 0 0 -0
0 0 0 -0 -0 -0 0 0 0 0 0 0 0 0 0 0 0 0 0 0 0 0 0 0 0 0 0 0 0 0 0 0 0 0 0 0 0 0 0 0 0 0 0 0
0 0 0 0 -0 -0 0 0 0 0 0 0 0 0 0 0 0 0 0 0 0 0 0 0 0 0 0 0 0 0 0 0 0 0 0 0 0 0 0 0 0 0 0 0
0 0 0 0 0 0 0 0 0 0 0 0 0 0 0 0 0 0 0 0 0 0 0 0 0 0 0 0 0 0 0 0 0 0 0 0 0 0 0 0 0 0 0 0
0 0 0 0 0 0 0 0 0 0 0 0 0 0 0 0 0 0 0 0 0 0 0 0 0 0 0 0 0 0 0 0 0 0 0 0 0 0 0 0 0 0 0 0
0 0 0 0 0 0 0 0 0 0 0 0 0 0 0 0 0 0 0 0 0 0 0 0 0 0 0 0 0 0 0 0 0 0 0 0 0 0 0 0 -0 0 0 0
0 0 0 0 0 0 0 0 0 0 0 0 0 0 0 0 0 0 0 0 0 0 0 0 0 0 0 0 0 0 0 0 0 0 0 0 0 0 0 0 0 0 0 0
0 0 0 0 0 0 0 0 0 0 0 0 0 0 0 0 0 0 0 0 0 0 0 0 0 0 0 0 0 0 0 0 0 0 0 0 0 0 0 0 0 0 0 0
0 0 0 0 0 0 0 0 0 0 0 0 -0 0 0 -0 -0 0 0 0 0 0 0 0 0 0 0 0 0 0 0 0 1 0 0 0 0 0 0 0 0 0 0 0
0 0 0 0 0 0 0 0 0 0 0 0 0 0 0 0 0 0 0 0 0 0 0 0 0 0 0 0 0 0 0 0 0 0 0 0 0 0 0 0 0 0 0 -0
0 0 0 0 0 0 0 0 0 0 0 0 0 0 0 0 0 0 0 0 0 0 0 0 0 0 0 0 0 -0 0 0 0 0 0 -0 -0 0 0 0 0 0 0 -0
0 0 0 0 0 0 0 0 0 0 0 0 0 0 0 0 0 0 0 0 0 0 0 0 0 0 0 0 0 -0 -0 -0 0 0 0 -0 -0 0 0 0 0 0 -0 -0
0 0 0 0 0 0 0 0 0 0 0 0 0 0 0 0 0 0 0 0 0 0 0 0 0 0 0 0 -0 -0 0 0 -0 0 0 -0 0 -0 -0 0 0 -0 -0 -0
0 0 0 0 0 0 0 0 0 0 0 0 0 0 0 0 0 0 0 0 0 0 0 0 0 0 0 0 -0 -0 -0 -0 -0 -0 0 -0 -0 -0 0 0 -0 -0 -0 -0
0 0 0 0 0 0 0 0 0 0 0 0 0 0 0 0 0 0 0 0 0 0 0 0 0 0 0 0 -0 -0 0 -0 0 0 -0 -0 -0 0 0 0 -0 0 0 -0
0 0 -0 0 0 0 0 0 0 0 0 0 0 0 0 0 0 0 0 0 0 0 0 0 0 -0 0 -0 0 -0 0 0 -0 -0 -0 -0 0 0 0 0 0 0 0 -0
0 0 0 0 0 0 0 0 0 0 0 0 0 0 0 0 0 0 0 0 0 0 -0 0 -0 0 -0 -0 0 0 0 -0 -0 -0 0 -0 -0 -0 -0 0 0 0 -0 -0
0 0 0 0 0 0 0 0 0 0 0 0 0 0 0 0 0 0 0 -0 -0 -0 -0 0 -0 -0 0 -0 0 -0 -0 0 -0 0 0 -0 -0 0 -0 -0 -0 0 -0 0
0 0 0 0 0 0 0 0 0 0 0 0 0 0 0 0 0 0 -0 0 0 0 -0 -0 -0 -0 -0 -0 -0 -0 0 -0 -0 -0 0 -0 0 0 0 -0 0 -0 -0 0
0 0 0 0 0 0 0 0 0 0 0 0 0 0 0 0 0 -0 -0 -0 -0 0 -0 -0 -0 -0 -0 -0 -0 -0 0 -0 0 -0 -0 0 0 0 0 -0 -0 0 0 0
0 0 0 0 0 0 0 0 0 0 0 0 0 0 0 0 -0 -0 -0 0 -0 -0 -0 -0 -0 -0 -0 -0 -0 -0 0 -0 -0 -0 -0 0 0 0 0 0 0 0 0 0
0 0 0 0 0 0 0 0 0 0 0 0 0 0 -0 0 0 -0 -0 -0 -0 -0 -0 0 -0 -0 -0 -0 0 -0 -0 -0 -0 -0 0 0 0 0 0 0 0 0 0 0
0 0 0 0 0 0 0 0 0 0 0 0 0 0 0 0 0 0 0 0 -0 -0 -0 -0 -0 -0 -0 -0 0 -0 -0 -0 0 -0 -0 0 0 0 0 0 -0 0 0 0
0 0 0 0 0 0 0 0 0 0 0 0 0 0 0 0 0 0 0 0 0 -0 0 0 0 -0 -0 -0 0 -0 -0 0 0 -0 -0 0 0 0 0 0 0 0 0 0
Wind_Speed_500mb
55 55 57 59 58 53 26 9 7 19 14 20 5 5 6 3 5 6 8 11 13 13 13 19 13 11 4 2 14 20 22 13 27 42 44 31 24 32 22 8 20 24 27 39
52 52 52 53 54 53 38 17 7 17 17 8 7 3 4 5 7 6 7 10 6 10 16 8 17 16 1 9 14 10 18 10 20 16 16 9 10 15 17 24 28 29 31 33
50 50 49 49 46 41 20 15 5 9 15 13 14 11 3 8 4 17 12 18 17 21 20 20 17 24 13 8 13 12 13 19 25 23 35 43 46 47 46 33 11 32 43 62
48 46 48 46 43 33 23 16 9 8 10 10 16 11 11 16 11 7 14 14 14 18 2 25 33 30 13 22 34 28 15 28 34 40 47 46 48 53 52 48 50 41 55 61
44 44 44 44 42 31 21 18 15 20 22 15 16 5 8 13 14 8 17 17 23 23 22 24 34 41 37 34 25 20 20 22 28 40 46 51 56 52 50 53 51 41 43 48
41 42 41 41 40 34 20 23 13 16 14 9 13 9 16 17 19 18 18 22 21 29 36 42 45 51 55 50 35 36 31 7 5 26 35 44 38 32 17 27 35 31 29 43
36 38 38 35 35 33 21 23 21 18 15 13 13 23 23 24 26 27 40 40 32 40 43 51 54 64 65 61 53 52 36 15 6 16 34 24 13 19 32 23 30 35 41 43
33 33 34 34 29 25 19 21 18 17 15 29 26 14 23 32 31 33 34 31 28 24 38 26 20 28 30 40 31 28 23 15 6 10 21 41 36 15 8 8 27 40 25 23
31 30 29 30 30 23 19 15 15 19 19 9 24 28 30 20 20 21 17 9 30 31 22 20 30 26 32 10 4 16 25 22 11 12 14 19 17 15 2 19 30 7 24 24
30 28 27 26 27 27 22 11 21 16 29 25 16 24 24 28 24 18 30 18 24 9 8 8 15 26 16 12 29 7 10 14 25 23 18 24 20 18 10 19 22 58 43 48
28 26 25 24 24 24 23 14 14 11 19 47 29 26 29 28 27 15 18 19 3 9 7 10 19 18 22 25 24 13 10 10 18 16 15 19 16 15 6 32 41 32 46 54
25 23 25 24 22 20 19 9 10 28 24 46 59 48 43 45 46 42 25 18 18 10 8 9 10 20 18 26 27 31 20 18 8 9 10 35 68 59 52 33 31 37 56 53
22 22 24 22 22 20 16 21 17 23 31 58 34 19 7 6 20 22 39 36 32 29 32 29 12 16 19 19 24 33 31 36 10 12 26 40 63 70 50 33 48 60 50 54
20 22 24 23 22 21 21 21 16 25 18 19 2 2 28 39 42 35 40 38 31 28 24 19 8 14 24 22 27 30 30 27 22 37 47 55 54 36 34 45 48 40 48 50
20 25 26 25 25 24 26 26 19 21 14 15 42 52 19 10 18 15 20 34 43 42 15 12 10 20 18 31 32 33 46 38 23 27 56 48 48 29 48 37 39 41 46 51
25 29 28 27 27 26 25 8 13 10 5 17 10 31 21 5 13 25 30 30 32 27 11 12 17 40 20 9 19 43 48 31 42 50 55 49 32 45 39 22 42 40 39 44
30 31 28 28 28 27 16 13 7 10 12 15 16 15 8 11 24 16 19 9 10 15 11 15 22 40 17 6 19 56 60 61 48 43 16 21 23 29 23 39 35 33 36 38
32 28 27 29 30 28 17 11 19 22 18 10 8 12 31 3 20 17 13 13 12 13 12 12 19 22 15 10 37 41 45 41 14 14 19 14 30 23 30 31 30 33 36 41
26 24 23 17 6 15 8 15 15 12 13 9 12 13 14 18 30 28 13 4 7 12 9 10 8 7 10 20 39 21 29 17 16 26 26 27 24 24 29 28 30 31 38 35
16 13 7 10 6 13 9 11 8 15 12 15 24 30 18 24 25 13 14 10 7 6 14 10 6 6 50 42 13 16 17 18 24 32 36 26 29 29 25 26 27 31 30 29
4 7 8 7 19 9 12 10 12 14 11 15 16 22 13 15 16 8 9 9 10 7 5 5 5 3 29 63 10 14 19 19 20 30 22 27 19 21 24 27 30 28 30 29
11 14 19 16 6 12 9 8 10 11 8 12 11 11 13 14 5 3 8 8 7 8 11 5 5 14 64 65 18 18 19 17 28 33 21 20 20 22 24 27 28 28 30 32
9 7 7 9 11 7 12 16 10 10 5 6 7 14 8 8 5 13 6 8 11 22 6 5 5 41 64 71 18 17 11 22 36 24 21 21 23 27 27 28 28 28 35 36
9 9 8 11 12 12 14 18 4 9 12 7 15 15 8 10 8 9 7 9 7 5 12 8 14 55 63 62 12 13 5 17 31 27 24 22 27 27 30 31 32 37 41 42
9 9 10 14 25 16 11 11 4 9 14 17 18 16 21 9 8 8 8 7 4 6 4 6 40 56 57 44 15 13 7 13 26 29 22 24 26 28 31 38 43 34 39 46
11 17 16 27 21 21 24 23 20 16 19 12 12 11 7 9 7 4 11 9 5 1 6 22 33 46 45 24 23 17 11 19 21 18 25 21 26 29 39 42 43 53 55 55
13 18 32 42 41 31 25 19 23 14 17 14 12 6 11 5 7 11 6 5 6 8 17 21 29 39 37 15 16 16 11 18 20 18 22 22 27 36 47 43 40 43 47 52
Wind_Direction_500mb
355 358 358 358 360 4 31 340 274 347 348 254 295 20 1 345 254 233 283 286 286 289 318 298 290 268 258 95 305 305 299 291 289 288 283 271 269 276 265 234 274 267 284 274
355 357 360 1 3 2 7 342 331 349 344 317 41 80 239 278 275 280 291 284 250 320 288 308 284 287 350 279 278 330 350 283 308 307 154 168 271 298 282 298 295 252 267 269
355 355 1 3 5 5 14 328 309 28 55 49 332 353 256 279 170 280 271 285 292 281 277 255 255 265 262 233 266 296 293 246 249 268 292 310 299 296 294 292 260 283 268 283
352 357 360 5 8 17 22 4 58 3 337 67 335 301 305 292 283 233 263 272 242 294 248 311 280 278 283 271 277 228 238 263 265 261 263 268 268 270 271 263 258 255 276 280
350 355 2 8 13 34 26 4 352 335 284 311 299 134 322 309 312 280 293 270 292 279 257 260 280 287 280 291 290 235 240 274 289 288 285 281 274 276 283 284 284 279 276 282
348 352 0 8 16 32 25 3 337 304 297 302 277 14 330 316 317 294 273 295 304 302 297 306 298 287 281 276 273 272 272 256 286 276 292 303 294 279 284 305 304 306 299 300
345 349 354 6 17 25 30 347 341 308 297 307 327 319 301 294 294 292 296 295 283 298 312 303 287 270 259 254 252 244 247 228 233 285 296 273 239 292 271 275 293 304 300 310
339 346 350 354 12 19 28 351 351 329 301 320 292 314 308 300 290 273 285 296 300 312 307 297 287 292 231 242 239 230 222 202 245 266 283 286 293 6 34 59 299 299 301 326
331 337 343 347 351 12 23 334 340 317 301 50 324 301 293 286 317 315 317 23 311 296 298 287 261 273 289 286 209 187 180 200 198 264 272 284 328 319 28 295 291 71 338 313
319 328 336 342 341 345 4 325 320 315 290 283 317 308 318 307 307 313 316 339 318 284 271 270 274 270 292 266 278 203 222 227 230 244 252 265 295 65 301 279 320 330 326 310
313 322 327 332 336 336 348 301 301 281 285 292 290 290 293 294 276 280 307 321 176 292 249 270 287 303 301 311 310 316 241 268 266 247 243 264 55 338 242 302 308 312 307 299
310 318 323 324 327 324 332 332 311 294 269 274 294 287 277 261 256 274 274 243 303 291 297 314 339 307 303 291 281 276 281 214 286 246 255 303 308 302 306 304 313 316 303 301
307 316 319 318 317 314 301 305 298 303 295 303 291 305 180 252 260 262 258 263 256 259 271 293 279 269 279 272 272 289 269 269 233 282 260 285 303 299 304 321 322 310 299 304
304 314 314 309 307 307 299 301 295 287 299 285 2 285 293 288 268 277 245 255 259 262 268 273 264 269 282 285 293 288 267 275 259 267 279 287 290 299 311 319 317 302 309 311
305 313 311 309 304 306 303 291 281 269 243 301 301 302 303 264 277 271 258 249 246 253 265 240 259 268 278 268 272 265 270 267 267 272 282 287 295 316 322 314 316 313 317 318
302 309 304 301 300 305 327 263 213 222 243 309 305 315 296 249 276 279 278 264 245 227 225 237 243 253 259 265 268 273 289 300 288 280 284 292 305 319 321 300 323 325 320 324
301 302 297 293 295 295 262 298 200 206 316 281 289 287 182 272 295 273 270 245 219 217 240 229 252 263 254 259 264 275 287 282 319 319 299 301 329 318 316 327 335 327 330 333
299 297 294 294 295 291 287 234 251 253 263 247 275 279 278 193 305 305 266 246 228 229 245 245 244 270 211 255 265 289 314 312 343 350 351 317 315 327 342 341 338 340 344 351
297 299 308 308 270 239 234 251 269 233 234 271 231 275 303 351 328 315 311 250 228 233 233 236 253 234 232 274 341 328 32 42 12 348 341 330 329 338 345 347 350 352 0 2
305 328 246 248 174 258 273 241 227 202 220 233 259 271 275 312 307 312 320 207 242 236 219 182 228 269 354 340 357 43 34 18 11 1 340 358 341 346 352 358 1 10 13 31
332 269 254 311 294 273 235 216 210 194 224 206 246 250 268 287 297 280 290 304 282 278 122 253 222 72 340 330 338 22 27 21 9 350 10 358 8 2 3 9 17 24 43 41
240 275 288 290 235 236 228 221 216 207 253 163 220 246 252 277 284 257 265 264 275 271 344 266 16 344 333 337 355 16 26 16 12 353 14 19 20 20 23 27 36 40 43 68
278 286 252 213 211 219 224 202 211 203 178 193 230 255 303 265 222 230 240 249 250 346 342 26 357 327 335 344 2 22 42 36 8 15 24 26 37 35 43 46 51 43 65 70
242 236 255 234 202 227 214 229 314 143 197 219 266 290 297 315 279 257 239 260 349 313 1 4 322 328 333 347 348 16 46 44 30 19 31 44 39 49 51 60 58 71 68 81
244 228 244 233 245 282 268 274 188 213 220 234 264 278 244 266 281 260 281 245 144 43 333 281 316 331 340 346 336 360 344 41 41 26 49 41 46 62 66 73 63 70 84 86
238 234 249 262 271 252 225 226 236 199 220 248 249 253 275 243 250 274 252 342 51 348 294 315 323 346 355 352 354 25 25 50 46 52 36 53 65 73 90 70 73 73 77 84
235 242 239 258 279 280 276 227 227 211 222 231 250 230 230 256 243 260 12 23 45 335 327 329 336 354 358 354 5 5 93 68 55 52 44 70 87 99 86 75 68 71 80 82
Wind_Speed_850mb
55 55 57 59 58 53 26 9 7 19 14 20 5 5 6 3 5 6 8 11 13 13 13 19 13 11 4 2 14 20 22 13 27 42 44 31 24 32 22 8 20 24 27 39
52 52 52 53 54 53 38 17 7 17 17 8 7 3 4 5 7 6 7 10 6 10 16 8 17 16 1 9 14 10 18 10 20 16 16 9 10 15 17 24 28 29 31 33
50 50 49 49 46 41 20 15 5 9 15 13 14 11 3 8 4 17 12 18 17 21 20 20 17 24 13 8 13 12 13 19 25 23 35 43 46 47 46 33 11 32 43 62
48 46 48 46 43 33 23 16 9 8 10 10 16 11 11 16 11 7 14 14 14 18 2 25 33 30 13 22 34 28 15 28 34 40 47 46 48 53 52 48 50 41 55 61
44 44 44 44 42 31 21 18 15 20 22 15 16 5 8 13 14 8 17 17 23 23 22 24 34 41 37 34 25 20 20 22 28 40 46 51 56 52 50 53 51 41 43 48
41 42 41 41 40 34 20 23 13 16 14 9 13 9 16 17 19 18 18 22 21 29 36 42 45 51 55 50 35 36 31 7 5 26 35 44 38 32 17 27 35 31 29 43
36 38 38 35 35 33 21 23 21 18 15 13 13 23 23 24 26 27 40 40 32 40 43 51 54 64 65 61 53 52 36 15 6 16 34 24 13 19 32 23 30 35 41 43
33 33 34 34 29 25 19 21 18 17 15 29 26 14 23 32 31 33 34 31 28 24 38 26 20 28 30 40 31 28 23 15 6 10 21 41 36 15 8 8 27 40 25 23
31 30 29 30 30 23 19 15 15 19 19 9 24 28 30 20 20 21 17 9 30 31 22 20 30 26 32 10 4 16 25 22 11 12 14 19 17 15 2 19 30 7 24 24
30 28 27 26 27 27 22 11 21 16 29 25 16 24 24 28 24 18 30 18 24 9 8 8 15 26 16 12 29 7 10 14 25 23 18 24 20 18 10 19 22 58 43 48
28 26 25 24 24 24 23 14 14 11 19 47 29 26 29 28 27 15 18 19 3 9 7 10 19 18 22 25 24 13 10 10 18 16 15 19 16 15 6 32 41 32 46 54
25 23 25 24 22 20 19 9 10 28 24 46 59 48 43 45 46 42 25 18 18 10 8 9 10 20 18 26 27 31 20 18 8 9 10 35 68 59 52 33 31 37 56 53
22 22 24 22 22 20 16 21 17 23 31 58 34 19 7 6 20 22 39 36 32 29 32 29 12 16 19 19 24 33 31 36 10 12 26 40 63 70 50 33 48 60 50 54
20 22 24 23 22 21 21 21 16 25 18 19 2 2 28 39 42 35 40 38 31 28 24 19 8 14 24 22 27 30 30 27 22 37 47 55 54 36 34 45 48 40 48 50
20 25 26 25 25 24 26 26 19 21 14 15 42 52 19 10 18 15 20 34 43 42 15 12 10 20 18 31 32 33 46 38 23 27 56 48 48 29 48 37 39 41 46 51
25 29 28 27 27 26 25 8 13 10 5 17 10 31 21 5 13 25 30 30 32 27 11 12 17 40 20 9 19 43 48 31 42 50 55 49 32 45 39 22 42 40 39 44
30 31 28 28 28 27 16 13 7 10 12 15 16 15 8 11 24 16 19 9 10 15 11 15 22 40 17 6 19 56 60 61 48 43 16 21 23 29 23 39 35 33 36 38
32 28 27 29 30 28 17 11 19 22 18 10 8 12 31 3 20 17 13 13 12 13 12 12 19 22 15 10 37 41 45 41 14 14 19 14 30 23 30 31 30 33 36 41
26 24 23 17 6 15 8 15 15 12 13 9 12 13 14 18 30 28 13 4 7 12 9 10 8 7 10 20 39 21 29 17 16 26 26 27 24 24 29 28 30 31 38 35
16 13 7 10 6 13 9 11 8 15 12 15 24 30 18 24 25 13 14 10 7 6 14 10 6 6 50 42 13 16 17 18 24 32 36 26 29 29 25 26 27 31 30 29
4 7 8 7 19 9 12 10 12 14 11 15 16 22 13 15 16 8 9 9 10 7 5 5 5 3 29 63 10 14 19 19 20 30 22 27 19 21 24 27 30 28 30 29
11 14 19 16 6 12 9 8 10 11 8 12 11 11 13 14 5 3 8 8 7 8 11 5 5 14 64 65 18 18 19 17 28 33 21 20 20 22 24 27 28 28 30 32
9 7 7 9 11 7 12 16 10 10 5 6 7 14 8 8 5 13 6 8 11 22 6 5 5 41 64 71 18 17 11 22 36 24 21 21 23 27 27 28 28 28 35 36
9 9 8 11 12 12 14 18 4 9 12 7 15 15 8 10 8 9 7 9 7 5 12 8 14 55 63 62 12 13 5 17 31 27 24 22 27 27 30 31 32 37 41 42
9 9 10 14 25 16 11 11 4 9 14 17 18 16 21 9 8 8 8 7 4 6 4 6 40 56 57 44 15 13 7 13 26 29 22 24 26 28 31 38 43 34 39 46
11 17 16 27 21 21 24 23 20 16 19 12 12 11 7 9 7 4 11 9 5 1 6 22 33 46 45 24 23 17 11 19 21 18 25 21 26 29 39 42 43 53 55 55
13 18 32 42 41 31 25 19 23 14 17 14 12 6 11 5 7 11 6 5 6 8 17 21 29 39 37 15 16 16 11 18 20 18 22 22 27 36 47 43 40 43 47 52
Wind_Direction_850mb
355 358 358 358 360 4 31 340 274 347 348 254 295 20 1 345 254 233 283 286 286 289 318 298 290 268 258 95 305 305 299 291 289 288 283 271 269 276 265 234 274 267 284 274
355 357 360 1 3 2 7 342 331 349 344 317 41 80 239 278 275 280 291 284 250 320 288 308 284 287 350 279 278 330 350 283 308 307 154 168 271 298 282 298 295 252 267 269
355 355 1 3 5 5 14 328 309 28 55 49 332 353 256 279 170 280 271 285 292 281 277 255 255 265 262 233 266 296 293 246 249 268 292 310 299 296 294 292 260 283 268 283
352 357 360 5 8 17 22 4 58 3 337 67 335 301 305 292 283 233 263 272 242 294 248 311 280 278 283 271 277 228 238 263 265 261 263 268 268 270 271 263 258 255 276 280
350 355 2 8 13 34 26 4 352 335 284 311 299 134 322 309 312 280 293 270 292 279 257 260 280 287 280 291 290 235 240 274 289 288 285 281 274 276 283 284 284 279 276 282
348 352 0 8 16 32 25 3 337 304 297 302 277 14 330 316 317 294 273 295 304 302 297 306 298 287 281 276 273 272 272 256 286 276 292 303 294 279 284 305 304 306 299 300
345 349 354 6 17 25 30 347 341 308 297 307 327 319 301 294 294 292 296 295 283 298 312 303 287 270 259 254 252 244 247 228 233 285 296 273 239 292 271 275 293 304 300 310
339 346 350 354 12 19 28 351 351 329 301 320 292 314 308 300 290 273 285 296 300 312 307 297 287 292 231 242 239 230 222 202 245 266 283 286 293 6 34 59 299 299 301 326
331 337 343 347 351 12 23 334 340 317 301 50 324 301 293 286 317 315 317 23 311 296 298 287 261 273 289 286 209 187 180 200 198 264 272 284 328 319 28 295 291 71 338 313
319 328 336 342 341 345 4 325 320 315 290 283 317 308 318 307 307 313 316 339 318 284 271 270 274 270 292 266 278 203 222 227 230 244 252 265 295 65 301 279 320 330 326 310
313 322 327 332 336 336 348 301 301 281 285 292 290 290 293 294 276 280 307 321 176 292 249 270 287 303 301 311 310 316 241 268 266 247 243 264 55 338 242 302 308 312 307 299
310 318 323 324 327 324 332 332 311 294 269 274 294 287 277 261 256 274 274 243 303 291 297 314 339 307 303 291 281 276 281 214 286 246 255 303 308 302 306 304 313 316 303 301
307 316 319 318 317 314 301 305 298 303 295 303 291 305 180 252 260 262 258 263 256 259 271 293 279 269 279 272 272 289 269 269 233 282 260 285 303 299 304 321 322 310 299 304
304 314 314 309 307 307 299 301 295 287 299 285 2 285 293 288 268 277 245 255 259 262 268 273 264 269 282 285 293 288 267 275 259 267 279 287 290 299 311 319 317 302 309 311
305 313 311 309 304 306 303 291 281 269 243 301 301 302 303 264 277 271 258 249 246 253 265 240 259 268 278 268 272 265 270 267 267 272 282 287 295 316 322 314 316 313 317 318
302 309 304 301 300 305 327 263 213 222 243 309 305 315 296 249 276 279 278 264 245 227 225 237 243 253 259 265 268 273 289 300 288 280 284 292 305 319 321 300 323 325 320 324
301 302 297 293 295 295 262 298 200 206 316 281 289 287 182 272 295 273 270 245 219 217 240 229 252 263 254 259 264 275 287 282 319 319 299 301 329 318 316 327 335 327 330 333
299 297 294 294 295 291 287 234 251 253 263 247 275 279 278 193 305 305 266 246 228 229 245 245 244 270 211 255 265 289 314 312 343 350 351 317 315 327 342 341 338 340 344 351
297 299 308 308 270 239 234 251 269 233 234 271 231 275 303 351 328 315 311 250 228 233 233 236 253 234 232 274 341 328 32 42 12 348 341 330 329 338 345 347 350 352 0 2
305 328 246 248 174 258 273 241 227 202 220 233 259 271 275 312 307 312 320 207 242 236 219 182 228 269 354 340 357 43 34 18 11 1 340 358 341 346 352 358 1 10 13 31
332 269 254 311 294 273 235 216 210 194 224 206 246 250 268 287 297 280 290 304 282 278 122 253 222 72 340 330 338 22 27 21 9 350 10 358 8 2 3 9 17 24 43 41
240 275 288 290 235 236 228 221 216 207 253 163 220 246 252 277 284 257 265 264 275 271 344 266 16 344 333 337 355 16 26 16 12 353 14 19 20 20 23 27 36 40 43 68
278 286 252 213 211 219 224 202 211 203 178 193 230 255 303 265 222 230 240 249 250 346 342 26 357 327 335 344 2 22 42 36 8 15 24 26 37 35 43 46 51 43 65 70
242 236 255 234 202 227 214 229 314 143 197 219 266 290 297 315 279 257 239 260 349 313 1 4 322 328 333 347 348 16 46 44 30 19 31 44 39 49 51 60 58 71 68 81
244 228 244 233 245 282 268 274 188 213 220 234 264 278 244 266 281 260 281 245 144 43 333 281 316 331 340 346 336 360 344 41 41 26 49 41 46 62 66 73 63 70 84 86
238 234 249 262 271 252 225 226 236 199 220 248 249 253 275 243 250 274 252 342 51 348 294 315 323 346 355 352 354 25 25 50 46 52 36 53 65 73 90 70 73 73 77 84
235 242 239 258 279 280 276 227 227 211 222 231 250 230 230 256 243 260 12 23 45 335 327 329 336 354 358 354 5 5 93 68 55 52 44 70 87 99 86 75 68 71 80 82